Location: Julian California
(33.0790°N, 116.6010°W)
Time: 00:08:16
(UTC-08:00)

Cosmos 1125 Rocket - Pass Details

Date: 19 May 2017
Orbit: 757 x 781 km, 74.0° (Epoch: 20 November)

Event Time Altitude Azimuth Distance (km) Brightness Sun altitude
Rises 20:00:42 0° 350° (N) 3,262 7.3 -4.3°
Reaches altitude 10° 20:03:12 10° 357° (N) 2,328 6.5 -4.8°
Maximum altitude 20:08:16 45° 70° (ENE) 1,046 4.0 -5.7°
Drops below altitude 10° 20:13:16 10° 142° (SE) 2,302 5.4 -6.6°
Enters shadow 20:14:29 - 146° (SE) 2,751 5.8 -6.9°
